Torna al catalogo

FENGYUN 1C DEB *

AttivoPO
NORAD 47012·DEBRIS·🇨🇳 China

Lanciato May 10, 1999 da Taiyuan Satellite Launch Center

Loading…

Prossimi Passaggi (prossime 24 ore)

TLE

In scadenzaSource: Space-Track

Epoca: Sep 4, 2026, 20:35 UTC

1 47012U 99025FAN 26247.85799003  .00000217  00000-0  22923-3 0  9992
2 47012  98.7228 110.4437 0163779  69.1471 292.7134 13.78142883582382

Traccia FENGYUN 1C DEB * in tempo reale con AllMySat

Download on the App Store